FENGYUN 1C DEB

Satellite information

Favourite Embed

Satellite Type and Status

DEBRISIN ORBIT

Key statistics

Satellite FENGYUN 1C DEB at a glance.

Uptime

9500

Days in orbit

Revolutions

≈ 14.2

Per day

Orbit

SSO

Sun Synchronous Orbit

Inclination

99.4

Latest

Satellite identification and parameters

Extended collection of information and parameters for FENGYUN 1C DEB.

Object identification

Identified? True

Debris? True

Object name: FENGYUN 1C DEB

International designator: 1999-025BZY

Object number (NORAD): 31618

Object ID (CCSDS): 31618

Country: PEOPLES REPUBLIC OF CHINA (PRC)

Current information (Y/N): Y

RCS size: SMALL

Orbital parameters

Period: 101.369 minutes

Inclination: 99.416 deg

SMA: 7201.641 km

Apoapsis: 937.376 km

Periapsis: 709.636 km

RAAN: 254.7729 deg

Eccentricy: 0.0158117

Argument of periapsis: 226.9319 deg

Mean anomaly: 131.853 deg

Mean motion: 14.2054693 rev/day

Mean motion (dot): 0.0000131 rev/day2

B* drag term: 0.00055827 1/REarth

Two-line elements (TLE)

Creation date: May 7, 2025, 3:14 a.m.

Reference frame: TEME

Reference center: EARTH

Epoch: May 6, 2025, 1:45 p.m. UTC

TLE line 0: 0 FENGYUN 1C DEB

TLE line 1: 1 31618U 99025BZY 25126.57291906 .00001310 00000-0 55827-3 0 9994

TLE line 2: 2 31618 99.4160 254.7729 0158117 226.9319 131.8530 14.20546930671381

Live tracking on map

Real-time ground track for satellite FENGYUN 1C DEB.

In-orbit conjunctions

A list of the most updated potential collisions computed for object FENGYUN 1C DEB.

Target Orbit TCA Probability of collision Miss distance Type
CZ-6A DEB LEO 2025-01-12 21:35:25 0.001463841 211.0 (m) DEBRIS
PICOSAT 1&2 (TETHERED) SSO 2024-11-07 20:42:37 0.0005144504 538.0 (m) PAYLOAD
COSMOS 1275 DEB LEO 2024-08-15 03:29:07 0.000112188 117.0 (m) DEBRIS

Associated space launch

Chinese polar orbiting meteorological satellite

FENGYUN 1C DEB was lifted into orbit during the mission ‘Long March 4B | Feng Yun 1C’, on board a Long March 4B space rocket.

The launch took place on May 10, 1999, 1:33 a.m. from Launch Complex 7.

For more information about the launch, click the button.

Launch to space Long March 4B | Feng Yun 1C
Long March 4B | Feng Yun 1C

Agency: N/A

Status: Launch Successful

Launch date: May 10, 1999, 1:33 a.m. UTC

Rocket: Long March 4B

Launch pad: Launch Complex 7

Location: Taiyuan Satellite Launch Center, People's Republic of China

...

Latest news about this satellite

There are no fresh news available about this satellite. Check back as we update our databases every day.


Newsletter sign-up

Weekly statistics, charts and insights to help you stay on top of the space industry.